• In Hungary
  • List of Countries
  • For 7 days
  • Water Temperature
  • Satellite Maps
  • Weather Map
  • News
  • Weather Widgets
  • user-avatar
    Login

    Hourly Weather Asadabad

    Today, 23 May, Wednesday

    Time Temperature Precipitation Wind Pressure Humidity
    00:00 +19°C° 0 mm 3 mps 659 mmHg 36%
    01:00 +18°C° 0 mm 3 mps 659 mmHg 37%
    02:00 +18°C° 0 mm 3 mps 658 mmHg 38%
    03:00 +18°C° 0 mm 3 mps 658 mmHg 38%
    04:00 +17°C° 0 mm 3 mps 658 mmHg 38%
    05:00 +17°C° 0 mm 4 mps 658 mmHg 35%
    06:00 +19°C° 0 mm 4 mps 658 mmHg 33%
    07:00 +21°C° 0 mm 3 mps 659 mmHg 30%
    08:00 +22°C° 0 mm 3 mps 659 mmHg 28%
    09:00 +24°C° 0 mm 2 mps 659 mmHg 27%
    10:00 +26°C° 0 mm 2 mps 659 mmHg 25%
    11:00 +27°C° 0 mm 2 mps 659 mmHg 23%
    12:00 +27°C° 0.1 mm 2 mps 659 mmHg 23%
    13:00 +28°C° 0.1 mm 2 mps 659 mmHg 22%
    14:00 +28°C° 0.1 mm 2 mps 659 mmHg 21%
    15:00 +28°C° 0.1 mm 2 mps 659 mmHg 21%
    16:00 +28°C° 0.1 mm 3 mps 659 mmHg 21%
    17:00 +28°C° 0.1 mm 3 mps 658 mmHg 22%
    18:00 +26°C° 0 mm 3 mps 658 mmHg 24%
    19:00 +25°C° 0 mm 3 mps 658 mmHg 27%
    20:00 +22°C° 0 mm 3 mps 658 mmHg 30%
    21:00 +21°C° 0 mm 3 mps 658 mmHg 30%
    22:00 +20°C° 0 mm 4 mps 658 mmHg 30%
    23:00 +19°C° 0 mm 4 mps 658 mmHg 30%

    Tomorrow, 24 May, Thursday

    Time Temperature Precipitation Wind Pressure Humidity
    00:00 +19°C° 0 mm 4 mps 657 mmHg 30%
    01:00 +18°C° 0 mm 4 mps 657 mmHg 31%
    02:00 +18°C° 0 mm 4 mps 657 mmHg 31%
    03:00 +17°C° 0 mm 4 mps 656 mmHg 31%
    04:00 +17°C° 0 mm 4 mps 656 mmHg 31%
    05:00 +17°C° 0 mm 4 mps 656 mmHg 31%
    06:00 +19°C° 0 mm 3 mps 657 mmHg 28%
    07:00 +21°C° 0 mm 3 mps 657 mmHg 26%
    08:00 +24°C° 0 mm 3 mps 658 mmHg 23%
    09:00 +25°C° 0 mm 2 mps 658 mmHg 22%
    10:00 +26°C° 0 mm 2 mps 658 mmHg 20%
    11:00 +28°C° 0 mm 2 mps 658 mmHg 19%
    12:00 +28°C° 0 mm 2 mps 658 mmHg 18%
    13:00 +29°C° 0 mm 2 mps 658 mmHg 18%
    14:00 +30°C° 0 mm 2 mps 658 mmHg 18%
    15:00 +30°C° 0 mm 2 mps 658 mmHg 18%
    16:00 +30°C° 0 mm 2 mps 658 mmHg 18%
    17:00 +30°C° 0 mm 2 mps 658 mmHg 18%
    18:00 +28°C° 0 mm 2 mps 658 mmHg 21%
    19:00 +26°C° 0 mm 2 mps 658 mmHg 24%
    20:00 +24°C° 0 mm 2 mps 658 mmHg 28%
    21:00 +24°C° 0 mm 2 mps 658 mmHg 29%
    22:00 +22°C° 0 mm 3 mps 657 mmHg 29%
    23:00 +21°C° 0 mm 3 mps 657 mmHg 30%

    Day after tomorrow, 25 May, Friday

    Time Temperature Precipitation Wind Pressure Humidity
    00:00 +21°C° 0 mm 3 mps 657 mmHg 30%
    01:00 +20°C° 0 mm 3 mps 657 mmHg 30%
    02:00 +20°C° 0 mm 3 mps 657 mmHg 30%
    03:00 +20°C° 0 mm 3 mps 657 mmHg 30%
    04:00 +19°C° 0 mm 3 mps 657 mmHg 30%
    05:00 +19°C° 0 mm 3 mps 656 mmHg 30%
    06:00 +21°C° 0 mm 3 mps 657 mmHg 28%
    07:00 +24°C° 0 mm 3 mps 658 mmHg 25%
    08:00 +26°C° 0 mm 2 mps 659 mmHg 23%
    09:00 +27°C° 0 mm 2 mps 659 mmHg 22%
    10:00 +28°C° 0 mm 2 mps 659 mmHg 22%
    11:00 +29°C° 0 mm 2 mps 659 mmHg 21%
    12:00 +30°C° 0 mm 2 mps 659 mmHg 20%
    13:00 +30°C° 0 mm 2 mps 659 mmHg 20%
    14:00 +31°C° 0 mm 2 mps 658 mmHg 20%
    15:00 +31°C° 0.1 mm 2 mps 658 mmHg 20%
    16:00 +31°C° 0.1 mm 2 mps 658 mmHg 20%
    17:00 +31°C° 0.1 mm 2 mps 658 mmHg 20%
    18:00 +29°C° 0 mm 2 mps 658 mmHg 23%
    19:00 +27°C° 0 mm 2 mps 658 mmHg 26%
    20:00 +25°C° 0 mm 2 mps 658 mmHg 30%
    21:00 +25°C° 0 mm 3 mps 658 mmHg 31%
    22:00 +24°C° 0 mm 3 mps 658 mmHg 32%
    23:00 +22°C° 0 mm 3 mps 658 mmHg 34%

    26 May, Saturday

    Time Temperature Precipitation Wind Pressure Humidity
    00:00 +22°C° 0 mm 3 mps 657 mmHg 34%
    01:00 +21°C° 0 mm 3 mps 657 mmHg 35%
    02:00 +21°C° 0 mm 3 mps 656 mmHg 36%
    03:00 +20°C° 0 mm 3 mps 656 mmHg 36%
    04:00 +20°C° 0 mm 3 mps 656 mmHg 36%
    05:00 +20°C° 0 mm 3 mps 656 mmHg 36%
    06:00 +22°C° 0 mm 3 mps 656 mmHg 33%
    07:00 +24°C° 0 mm 3 mps 657 mmHg 30%
    08:00 +26°C° 0 mm 2 mps 658 mmHg 27%
    09:00 +28°C° 0 mm 2 mps 658 mmHg 25%
    10:00 +29°C° 0 mm 2 mps 658 mmHg 24%
    11:00 +30°C° 0 mm 2 mps 658 mmHg 23%
    12:00 +30°C° 0.1 mm 2 mps 658 mmHg 22%
    13:00 +31°C° 0.1 mm 2 mps 658 mmHg 22%
    14:00 +33°C° 0.1 mm 3 mps 657 mmHg 21%
    15:00 +31°C° 0.2 mm 2 mps 657 mmHg 22%
    16:00 +31°C° 0.2 mm 2 mps 657 mmHg 22%
    17:00 +31°C° 0.2 mm 2 mps 657 mmHg 23%
    18:00 +29°C° 0.1 mm 2 mps 657 mmHg 27%
    19:00 +27°C° 0.1 mm 3 mps 657 mmHg 31%
    20:00 +26°C° 0.1 mm 3 mps 657 mmHg 34%
    21:00 +25°C° 0.1 mm 3 mps 657 mmHg 36%
    22:00 +25°C° 0.1 mm 3 mps 657 mmHg 37%
    23:00 +24°C° 0.1 mm 3 mps 657 mmHg 39%

    27 May, Sunday

    Time Temperature Precipitation Wind Pressure Humidity
    00:00 +22°C° 0 mm 3 mps 657 mmHg 39%
    01:00 +22°C° 0 mm 3 mps 656 mmHg 39%
    02:00 +22°C° 0 mm 3 mps 656 mmHg 39%
    03:00 +21°C° 0 mm 3 mps 656 mmHg 40%
    04:00 +21°C° 0 mm 3 mps 656 mmHg 40%
    05:00 +20°C° 0 mm 3 mps 655 mmHg 40%
    06:00 +22°C° 0 mm 3 mps 656 mmHg 36%
    07:00 +25°C° 0 mm 3 mps 656 mmHg 33%
    08:00 +27°C° 0 mm 2 mps 657 mmHg 29%
    09:00 +28°C° 0 mm 2 mps 657 mmHg 27%
    10:00 +29°C° 0 mm 2 mps 657 mmHg 26%
    11:00 +30°C° 0 mm 2 mps 658 mmHg 24%
    12:00 +31°C° 0 mm 2 mps 657 mmHg 23%
    13:00 +32°C° 0 mm 2 mps 657 mmHg 22%
    14:00 +32°C° 0 mm 2 mps 657 mmHg 22%
    15:00 +32°C° 0 mm 2 mps 657 mmHg 21%
    16:00 +32°C° 0 mm 2 mps 656 mmHg 21%
    17:00 +32°C° 0 mm 2 mps 656 mmHg 21%
    18:00 +30°C° 0 mm 2 mps 656 mmHg 23%
    19:00 +28°C° 0 mm 2 mps 656 mmHg 25%
    20:00 +27°C° 0 mm 2 mps 656 mmHg 27%
    21:00 +26°C° 0 mm 3 mps 656 mmHg 28%
    22:00 +25°C° 0 mm 3 mps 656 mmHg 28%
    23:00 +25°C° 0 mm 4 mps 657 mmHg 29%

    28 May, Monday

    Time Temperature Precipitation Wind Pressure Humidity
    00:00 +23°C° 0 mm 4 mps 656 mmHg 30%
    01:00 +22°C° 0 mm 4 mps 656 mmHg 31%
    02:00 +22°C° 0 mm 4 mps 655 mmHg 32%
    03:00 +21°C° 0 mm 4 mps 655 mmHg 32%
    04:00 +21°C° 0 mm 4 mps 655 mmHg 32%
    05:00 +20°C° 0 mm 4 mps 655 mmHg 32%
    06:00 +22°C° 0 mm 4 mps 656 mmHg 29%
    07:00 +25°C° 0 mm 4 mps 656 mmHg 26%
    08:00 +27°C° 0 mm 4 mps 657 mmHg 23%
    09:00 +28°C° 0 mm 3 mps 657 mmHg 22%
    10:00 +30°C° 0 mm 3 mps 657 mmHg 20%
    11:00 +31°C° 0 mm 3 mps 657 mmHg 18%
    12:00 +33°C° 0 mm 3 mps 657 mmHg 18%
    13:00 +33°C° 0 mm 3 mps 656 mmHg 17%
    14:00 +34°C° 0 mm 3 mps 656 mmHg 17%
    15:00 +34°C° 0 mm 3 mps 656 mmHg 17%
    16:00 +34°C° 0 mm 3 mps 655 mmHg 18%
    17:00 +34°C° 0 mm 3 mps 655 mmHg 18%
    18:00 +31°C° 0 mm 3 mps 655 mmHg 21%
    19:00 +29°C° 0 mm 3 mps 655 mmHg 24%
    20:00 +27°C° 0 mm 2 mps 655 mmHg 27%
    21:00 +26°C° 0 mm 3 mps 655 mmHg 28%
    22:00 +25°C° 0 mm 3 mps 655 mmHg 29%
    23:00 +23°C° 0 mm 4 mps 655 mmHg 30%
    Show more